Location: Bernay
(48.6766°N, 2.9386°E)
Time: 22:44:46
(UTC+00:00)

Cosmos 1470 Rocket - Pass Details

Date: 12 January 2026
Orbit: 598 x 626 km, 82.5° (Epoch: 15 February)

Event Time Altitude Azimuth Distance (km) Brightness Sun altitude
Rises 17:38:45 0° 352° (N) 2,858 6.9 -13.2°
Reaches altitude 10° 17:40:59 10° 356° (N) 1,953 6.0 -13.5°
Maximum altitude 17:45:16 63° 78° (ENE) 676 3.4 -14.2°
Drops below altitude 10° 17:49:32 10° 160° (SSE) 1,949 6.1 -14.9°
Sets 17:51:46 0° 164° (SSE) 2,852 7.0 -15.2°
